Change the Weather History Date:

Tuesday, October 23, 2012

  Actual Average Record
Temperature  
Mean Temperature 74 °F -  
Max Temperature 88 °F 70 °F 91 °F (2001)
Min Temperature 59 °F 48 °F 33 °F (1996)
Cooling Degree Days 8    
Growing Degree Days 24 (Base 50)    
Moisture  
Dew Point 64 °F    
Average Humidity 84    
Maximum Humidity 100    
Minimum Humidity 45    
Precipitation  
Precipitation 0.00 in - - ()
Sea Level Pressure  
Sea Level Pressure 29.81 in    
Wind  
Wind Speed 8 mph (SSE)    
Max Wind Speed 22 mph    
Max Gust Speed 25 mph    
Visibility 9 miles    
Events      
Averages and records for this station are not official NWS values.
T = Trace of Precipitation, MM = Missing Value Source: NWS Daily Summary

Daily Weather History Graph

Daily Weather History Graph

Search for Another Location

Airport or City:

Trip Planner

Search our weather history database for the weather conditions in past years. The results will help you decide how hot, cold, wet, or windy it might be!

Date:

Astronomy

Oct. 23, 2012 Rise Set
Actual Time 7:49 AM CDT 6:52 PM CDT
Civil Twilight 7:24 AM CDT 7:17 PM CDT
Nautical Twilight 6:54 AM CDT 7:47 PM CDT
Astronomical Twilight 6:25 AM CDT 8:16 PM CDT
Moon 3:24 PM CDT (10/23) 1:57 AM CDT (10/23)
Length of Visible Light 11h 53m
Length of Day
11h 02m
Waxing Gibbous, 67% of the Moon is Illuminated
Oct 23
Waxing Gibbous
Oct 29
Full
Nov 6
Last Quarter
Nov 13
New
Nov 20
First Quarter

Hourly Weather History & Observations

Time (CDT) Temp. Heat Index Dew Point Humidity Pressure Visibility Wind Dir Wind Speed Gust Speed Precip Events Conditions
12:55 AM 63.3 °F - 63.3 °F 100% 29.82 in 10.0 mi ESE 4.6 mph - N/A   Clear
1:55 AM 61.2 °F - 61.2 °F 100% 29.81 in 10.0 mi East 3.5 mph - N/A   Clear
2:55 AM 61.0 °F - 61.0 °F 100% 29.80 in 10.0 mi SE 4.6 mph - N/A   Clear
3:55 AM 60.1 °F - 60.1 °F 100% 29.79 in 10.0 mi SE 5.8 mph - N/A   Clear
4:12 AM 60.8 °F - 60.8 °F 100% 29.80 in 9.0 mi ESE 5.8 mph - N/A   Clear
4:15 AM 60.8 °F - 60.8 °F 100% 29.80 in 8.0 mi SE 5.8 mph - N/A   Clear
4:37 AM 59.0 °F - 59.0 °F 100% 29.79 in 8.0 mi ESE 5.8 mph - N/A   Clear
4:55 AM 59.5 °F - 59.5 °F 100% 29.79 in 7.0 mi ESE 5.8 mph - N/A   Clear
5:22 AM 59.0 °F - 59.0 °F 100% 29.80 in 6.0 mi ESE 5.8 mph - N/A   Clear
5:55 AM 60.4 °F - 60.4 °F 100% 29.81 in 5.0 mi ESE 6.9 mph - N/A   Clear
6:55 AM 61.3 °F - 61.3 °F 100% 29.82 in 6.0 mi SSE 8.1 mph - N/A   Clear
7:00 AM 62.6 °F - 62.6 °F 100% 29.82 in 7.0 mi SSE 8.1 mph - N/A   Clear
7:16 AM 62.6 °F - 62.6 °F 100% 29.83 in 9.0 mi SSE 6.9 mph - N/A   Clear
7:55 AM 62.8 °F - 62.8 °F 100% 29.84 in 7.0 mi SSE 5.8 mph - N/A   Clear
8:06 AM 62.6 °F - 62.6 °F 100% 29.84 in 2.5 mi SSE 6.9 mph - N/A   Clear
8:18 AM 62.6 °F - 62.6 °F 100% 29.86 in 7.0 mi SSE 4.6 mph - N/A   Clear
8:19 AM 62.6 °F - 62.6 °F 100% 29.84 in 1.8 mi SSE 4.6 mph - N/A   Clear
8:55 AM 65.8 °F - 65.8 °F 100% 29.84 in 10.0 mi South 8.1 mph - N/A   Clear
9:55 AM 73.0 °F - 68.2 °F 85% 29.85 in 10.0 mi SSW 18.4 mph 21.9 mph N/A   Clear
10:55 AM 77.7 °F - 67.6 °F 71% 29.84 in 10.0 mi SSW 21.9 mph - N/A   Clear
11:55 AM 81.5 °F 83.9 °F 67.1 °F 61% 29.83 in 10.0 mi SSW 17.3 mph 25.3 mph N/A   Clear
12:55 PM 84.6 °F 87.1 °F 66.7 °F 55% 29.81 in 10.0 mi SSW 18.4 mph - N/A   Clear
1:55 PM 86.9 °F 89.6 °F 66.6 °F 51% 29.78 in 10.0 mi SSW 19.6 mph 25.3 mph N/A   Clear
2:55 PM 88.3 °F 90.9 °F 66.6 °F 48% 29.75 in 10.0 mi SSW 18.4 mph - N/A   Clear
3:55 PM 88.7 °F 90.4 °F 65.1 °F 45% 29.74 in 10.0 mi South 17.3 mph 25.3 mph N/A   Clear
4:55 PM 88.3 °F 90.5 °F 65.5 °F 47% 29.74 in 10.0 mi South 18.4 mph 25.3 mph N/A   Clear
5:55 PM 85.8 °F 88.5 °F 66.9 °F 53% 29.75 in 10.0 mi South 20.7 mph - N/A   Clear
6:55 PM 81.9 °F 84.4 °F 67.1 °F 61% 29.77 in 10.0 mi SSE 17.3 mph - N/A   Clear
7:55 PM 78.4 °F - 66.9 °F 68% 29.79 in 10.0 mi SSE 15.0 mph - N/A   Clear
8:55 PM 75.6 °F - 67.1 °F 75% 29.79 in 10.0 mi SSE 13.8 mph - N/A   Clear
9:55 PM 73.8 °F - 66.6 °F 78% 29.81 in 10.0 mi SSE 11.5 mph - N/A   Clear
10:55 PM 73.4 °F - 66.2 °F 78% 29.82 in 10.0 mi SSE 11.5 mph - N/A   Clear
11:55 PM 71.6 °F - 65.8 °F 82% 29.82 in 10.0 mi SSE 10.4 mph - N/A   Clear